📊 Raw Sensor Data

Showing records 41326 to 41350 of 84,980 total

ID Distance (ft) Battery V Battery A Int Temp (°F) Int Humid (%) Ext Temp (°F) Solar V RSSI SNR Time Stamp
43667 15.4 4.00 0 91 41 84 5.10 -71 7 06/16/2025 02:15 PM
43666 15.4 4.00 0 88 42 80 5.10 -68 7 06/16/2025 02:00 PM
43665 15.4 4.07 0 88 42 79 5.10 -68 7 06/16/2025 01:45 PM
43664 15.4 4.00 0 87 42 78 5.10 -68 7 06/16/2025 01:30 PM
43663 15.4 4.00 0 87 42 81 5.10 -71 7 06/16/2025 01:15 PM
43662 15.4 4.00 0 86 42 79 5.10 -69 8 06/16/2025 01:00 PM
43661 15.4 4.00 0 85 42 81 5.10 -70 7 06/16/2025 12:45 PM
43660 15.4 4.00 0 83 42 81 5.10 -68 7 06/16/2025 12:30 PM
43659 15.4 4.00 0 80 43 81 5.10 -68 8 06/16/2025 12:15 PM
43658 15.4 4.03 0 79 43 79 5.10 -68 8 06/16/2025 12:00 PM
43657 15.5 4.05 0 76 43 79 5.10 -69 7 06/16/2025 11:15 AM
43656 15.5 4.00 0 75 43 74 5.10 -68 7 06/16/2025 11:00 AM
43655 15.5 4.00 0 75 42 75 5.10 -70 8 06/16/2025 10:45 AM
43654 15.5 4.09 0 72 42 73 5.10 -67 8 06/16/2025 10:15 AM
43653 15.5 4.00 0 70 43 75 5.10 -70 8 06/16/2025 10:00 AM
43652 15.5 4.00 0 69 43 67 5.10 -69 8 06/16/2025 09:45 AM
43651 15.5 4.00 0 69 43 73 5.10 -70 8 06/16/2025 09:30 AM
43650 15.5 4.00 0 67 44 71 5.10 -69 7 06/16/2025 09:15 AM
43649 15.5 4.05 0 66 44 69 5.10 -68 7 06/16/2025 09:00 AM
43648 15.5 4.00 0 64 44 67 5.10 -68 7 06/16/2025 08:30 AM
43647 15.5 4.00 0 63 43 67 5.10 -70 8 06/16/2025 08:15 AM
43646 15.5 4.08 0 62 43 67 5.10 -69 8 06/16/2025 08:00 AM
43645 15.5 4.08 41 60 42 66 4.50 -67 8 06/16/2025 07:30 AM
43644 15.5 4.02 12 58 42 64 4.50 -71 8 06/16/2025 07:15 AM
43643 15.4 3.98 -9 56 42 63 4.50 -68 8 06/16/2025 07:00 AM